This demonstration page uses our WeatherBlox Daily Observations layout. Learn more.

Left ArrowRight Arrow

Hourly Observations for May 5, 2021

Temp ( °F °C ) Dew Point ( °F °C ) Humidity (%) Winds ( mph kmh ) Pressure ( in mb ) Visibility ( mi km ) Precip ( " mm )
12:56 am 00:56 Mostly Clear 50 10 38 3.3 63 63 S 8 13 30.09 1019 10 16 0.00 0.00
1:56 am 01:56 Cloudy 52 11.1 38 3.3 59 59 SSW 9 15 30.09 1019 10 16 0.00 0.00
2:56 am 02:56 Cloudy 52 11.1 38 3.3 59 59 S 10 17 30.08 1019 10 16 0.00 0.00
3:56 am 03:56 Cloudy with Light Rain 52 11.1 37 2.8 57 57 SSW 15 24 30.07 1018 10 16 0.00 0.00
4:56 am 04:56 Cloudy 52 11.1 37 2.8 57 57 SSW 10 17 30.08 1019 10 16 0.00 0.00
5:56 am 05:56 Cloudy 52 11.1 36 2.2 55 55 SSW 15 24 30.07 1018 10 16 0.00 0.00
6:56 am 06:56 Cloudy with Light Rain 50 10 38 3.3 63 63 SSW 12 19 30.10 1019 10 16 0.00 0.00
7:56 am 07:56 Cloudy with Light Rain 49 9.4 40 4.4 71 71 S 12 19 30.12 1020 10 16 0.00 0.00
8:56 am 08:56 Cloudy with Light Rain 49 9.4 42 5.6 77 77 S 16 26 30.11 1020 10 16 0.00 0.00
9:56 am 09:56 Mostly Sunny 55 12.8 42 5.6 62 62 SSW 15 24 30.11 1020 10 16 0.00 0.00
10:56 am 10:56 Mostly Sunny 60 15.6 41 5 50 50 SSW 24 39 30.07 1018 10 16 0.00 0.00
11:56 am 11:56 Sunny 62 16.7 43 6.1 50 50 SSW 20 31 30.08 1019 10 16 0.00 0.00
12:56 pm 12:56 Sunny 65 18.3 43 6.1 45 45 WSW 13 20 30.06 1018 10 16 0.00 0.00
1:56 pm 13:56 Mostly Cloudy 69 20.6 45 7.2 42 42 NW 13 20 30.04 1017 10 16 0.00 0.00
2:56 pm 14:56 Mostly Cloudy 68 20 42 5.6 39 39 NW 17 28 30.04 1017 10 16 0.00 0.00
3:56 pm 15:56 Mostly Sunny 70 21.1 38 3.3 31 31 NNW 17 28 30.03 1017 10 16 0.00 0.00
4:56 pm 16:56 Mostly Sunny 70 21.1 36 2.2 29 29 NW 17 28 30.03 1017 10 16 0.00 0.00
5:56 pm 17:56 Mostly Sunny 70 21.1 31 -0.6 23 23 NW 20 31 30.04 1017 10 16 0.00 0.00
6:56 pm 18:56 Sunny 68 20 33 0.6 27 27 NNW 18 30 30.06 1018 10 16 0.00 0.00
7:56 pm 19:56 Sunny 66 18.9 31 -0.6 27 27 NNW 15 24 30.08 1019 10 16 0.00 0.00
8:56 pm 20:56 Partly Cloudy 61 16.1 38 3.3 43 43 N 10 17 30.12 1020 10 16 0.00 0.00
9:56 pm 21:56 Clear 57 13.9 41 5 55 55 N 12 19 30.16 1021 10 16 0.00 0.00
10:56 pm 22:56 Clear 53 11.7 40 4.4 61 61 NNW 8 13 30.19 1022 10 16 0.00 0.00
11:56 pm 23:56 Clear 48 8.9 40 4.4 74 74 WNW 8 13 30.21 1023 10 16 0.00 0.00

Powered by AerisWeather